Regional Weather Roundup
Issued by NWS

Home | Current Version | Previous Version | Text Only | Print | Product List | Glossary On
Versions: 1 2 3 4 5 6 7 8 9 10 11 12 13 14 15 16 17 18 19 20 21 22 23 24 25 26 27 28 29 30 31 32 33 34 35 36 37 38 39 40 41 42 43 44 45 46 47 48 49 50
282
ASUS46 KSEW 060810
RWRWA

WASHINGTON REGIONAL WEATHER ROUNDUP
NATIONAL WEATHER SERVICE SEATTLE WA
1200 AM PST SAT FEB 06 2016

NOTE:"FAIR" INDICATES FEW OR NO CLOUDS BELOW 12,000 FEET WITH NO
SIGNIFICANT WEATHER AND/OR OBSTRUCTIONS TO VISIBILITY.

WAZ505-507>509-060900-
SEATTLE, TACOMA, EVERETT, AND VICINITY

CITY           SKY/WX    TMP DP  RH WIND       PRES   REMARKS
EVERETT        CLOUDY    44  39  82 S13       30.21R
BOEING FIELD   MOCLDY    48  40  73 S14G26    30.24R
RENTON         MOCLDY    49  40  71 S12G24    30.26R
SEATAC AIRPORT CLOUDY    45  38  76 SW21      30.26R
JBLM-MCCHORD   RAIN      44  44  99 W17       30.31R FOG
PUYALLUP       DRIZZLE   43  43 100 CALM      30.29R
BREMERTON      MOCLDY    43  39  87 S15G21    30.29R
JBLM-FT LEWIS  RAIN      41  41 100 MISG      30.31R FOG
TACOMA NARROWS RAIN      43  40  89 SW12      30.30R FOG
$$

WAZ001-503-506-510-514-515-060900-
NORTH INTERIOR

CITY           SKY/WX    TMP DP  RH WIND       PRES   REMARKS
BELLINGHAM     CLOUDY    47  37  68 VRB3      30.16R
FRIDAY HARBOR  MOCLDY    45  39  79 SW13G24   30.17R
EASTSOUND      MOCLDY    45  39  81 SW10      30.15R
PORT ANGELES   CLOUDY    45  37  73 W12       30.21R
EDIZ HOOK      PTSUNNY   47  38  71 W20       30.21R
PORT TOWNSEND  FAIR      43  41  93 CALM      30.20R
NAS WHIDBEY    MOCLDY    46  39  76 SW15      30.24R
ARLINGTON      MOCLDY    41  34  75 SE10      30.24R
BURLINGTON     MOCLDY    46  37  71 SW8G16    30.20R
$$

WAZ020-022-039-040-504-511-512-060900-
SOUTHWEST INTERIOR

CITY           SKY/WX    TMP DP  RH WIND       PRES   REMARKS
SHELTON        CLOUDY    42  39  89 S8        30.26R
OLYMPIA        LGT RAIN  43  40  89 SW5       30.31R
CHEHALIS       CLOUDY    43  43 100 S7        30.32R
KELSO          MOCLDY    46  37  71 S6        30.37R
VANCOUVER      MOCLDY    47  42  83 S6        30.37R
SCAPPOOSE, OR  FOG       38  38 100 CALM      30.36R VSB 1/2
PORTLAND, OR   MOCLDY    47  42  83 S9        30.38R
$$

WAZ021-516-517-060900-
WASHINGTON COAST

CITY           SKY/WX    TMP DP  RH WIND       PRES   REMARKS
FORKS          CLOUDY    45  41  86 CALM      30.22R
HOQUIAM        CLOUDY    45  43  93 S6        30.29R
ASTORIA, OR    PTCLDY    49  40  71 SW9       30.32R
$$

WAZ019-023-024-040-518-519-060900-
CASCADE MOUNTAINS AND COLUMBIA GORGE

CITY           SKY/WX    TMP DP  RH WIND       PRES   REMARKS
STAMPEDE PASS  NOT AVBL
TROUTDALE, OR  MOCLDY    48  43  82 SW8       30.37R
THE DALLES, OR PTCLDY    46  36  68 N10       30.29R
$$

WAZ026-027-041>044-520-521-060900-
EAST SLOPES

CITY           SKY/WX    TMP DP  RH WIND       PRES   REMARKS
OMAK           CLEAR     33  29  85 S9        30.04R
WENATCHEE      CLEAR     34  28  79 VRB5      30.11R
ELLENSBURG     CLEAR     38  31  76 W13G20    30.15R
YAKIMA         CLEAR     47  28  47 W14       30.18R
$$

WAZ028-034-035-060900-
COLUMBIA BASIN

CITY           SKY/WX    TMP DP  RH WIND       PRES   REMARKS
EPHRATA        CLEAR     36  33  89 SW14      30.12R
MOSES LAKE     CLEAR     39  34  82 S10       30.15R
PASCO          MOCLDY    51  37  58 SW18G25   30.21S
HERMISTON, OR  CLOUDY    48  40  73 SW7       30.27R
$$

WAZ036>038-060900-
NORTHEAST WASHINGTON

CITY           SKY/WX    TMP DP  RH WIND       PRES   REMARKS
SPOKANE GEIGER CLOUDY    44  35  70 SW24G30   30.05F
SPOKANE FELTS  CLOUDY    46  38  73 SW15      30.09F
FAIRCHILD AFB  CLOUDY    42  36  78 S20       30.05F
COEURDALENE,ID CLOUDY    43  36  75 SW25      30.06F
DEER PARK      CLOUDY    41  33  73 S16       30.05F
$$

WAZ029>033-060900-
SOUTHEAST WASHINGTON

CITY           SKY/WX    TMP DP  RH WIND       PRES   REMARKS
PULLMAN        CLOUDY    44  31  60 S12       30.19R
LEWISTON, ID   CLOUDY    49  31  49 S23G32    30.18F
WALLA WALLA    CLOUDY    50  36  58 S16G23    30.24R
PENDLETON, OR  CLOUDY    45  37  73 W21G30    30.25R
$$




USA.gov is the U.S. government's official web portal to all federal, state and local government web resources and services.